User: anonymous   Login
Location: Caltech
(34.1382°N, 118.1253°W)
Time: 09:32:00
(UTC-07:00)
Language:

Iridium 49 - Orbit

View from above orbital plane
View from above orbital plane
View from above satellite
View from above satellite

Ground track
Ground track

The orbit data is extracted from the following two-line orbital elements,

1 25108U 97082E   17147.89375464 +.00000141 +00000-0 +43298-4 0  9994
2 25108 086.3965 263.8661 0002394 094.2938 028.1862 14.34219058017204
Epoch (UTC): 27 May 2017 21:27:00
Eccentricity: 0.0002394
inclination: 86.3965°
perigee height: 776 km
apogee height: 779 km
right ascension of ascending node: 263.8661°
argument of perigee: 94.2938°
revolutions per day: 14.34219058
mean anomaly at epoch: 28.1862°
orbit number at epoch: 1720

The dashed part of the orbit path shows where the satellite is in the earth's shadow,  

DLR